Weather History for Iliamna, AK

Change the Weather History Date:

Tuesday, April 16, 2013

  Actual Average Record
Temperature  
Mean Temperature 29 °F -  
Max Temperature 37 °F 38 °F 54 °F (1965)
Min Temperature 21 °F 25 °F 3 °F (1963)
Degree Days  
Heating Degree Days 36    
Moisture  
Dew Point 14 °F    
Average Humidity 50    
Maximum Humidity 75    
Minimum Humidity 21    
Precipitation  
Precipitation 0.00 in - - ()
Sea Level Pressure  
Sea Level Pressure 30.23 in    
Wind  
Wind Speed 8 mph (NNW)    
Max Wind Speed 17 mph    
Max Gust Speed -    
Visibility 10 miles    
Events      
Averages and records for this station are not official NWS values.
T = Trace of Precipitation, MM = Missing Value Source: NWS Daily Summary

Daily Weather History Graph

Daily Weather History Graph

Search for Another Location

Airport:

Trip Planner

Search our weather history database for the weather conditions in past years. The results will help you decide how hot, cold, wet, or windy it might be!

Date:

Astronomy

Apr. 16, 2013 Rise Set
Actual Time 6:59 AM AKDT 9:40 PM AKDT
Civil Twilight 6:13 AM AKDT 10:27 PM AKDT
Nautical Twilight 5:11 AM AKDT 11:30 PM AKDT
Astronomical Twilight 3:42 AM AKDT 1:02 AM AKDT
Moon 10:47 AM AKDT (4/16) 3:26 AM AKDT (4/16)
Length of Visible Light 16h 14m
Length of Day
14h 41m
Waxing Crescent, 34% of the Moon is Illuminated
Apr 16
Waxing Crescent
Apr 18
First Quarter
Apr 25
Full
May 2
Last Quarter
May 9
New

Hourly Weather History & Observations

Time (AKDT) Temp. Windchill Dew Point Humidity Pressure Visibility Wind Dir Wind Speed Gust Speed Precip Events Conditions
12:53 AM 25.0 °F - 18.0 °F 75% 30.32 in 10.0 mi Calm Calm - N/A   Clear
1:53 AM 26.1 °F 17.6 °F 18.0 °F 71% 30.30 in 10.0 mi North 8.1 mph - N/A   Clear
2:53 AM 25.0 °F 18.1 °F 16.0 °F 69% 30.29 in 10.0 mi NNE 5.8 mph - N/A   Clear
3:53 AM 26.1 °F 15.6 °F 15.1 °F 63% 30.27 in 10.0 mi North 11.5 mph - N/A   Clear
4:53 AM 25.0 °F 15.5 °F 15.1 °F 66% 30.27 in 10.0 mi North 9.2 mph - N/A   Clear
5:53 AM 24.1 °F 13.7 °F 14.0 °F 65% 30.26 in 10.0 mi North 10.4 mph - N/A   Clear
6:53 AM 21.9 °F 11.0 °F 12.9 °F 68% 30.25 in 10.0 mi North 10.4 mph - N/A   Clear
7:53 AM 24.1 °F 13.1 °F 12.9 °F 62% 30.25 in 10.0 mi North 11.5 mph - N/A   Clear
8:53 AM 25.0 °F 14.2 °F 12.9 °F 60% 30.24 in 10.0 mi North 11.5 mph - N/A   Clear
9:53 AM 28.9 °F 18.2 °F 12.9 °F 51% 30.24 in 10.0 mi North 13.8 mph - N/A   Clear
10:53 AM 30.9 °F 24.3 °F 14.0 °F 50% 30.24 in 10.0 mi NNW 6.9 mph - N/A   Clear
11:53 AM 34.0 °F 28.8 °F 14.0 °F 44% 30.23 in 10.0 mi North 5.8 mph - N/A   Clear
12:53 PM 35.1 °F 32.2 °F 12.0 °F 39% 30.22 in 10.0 mi NNW 3.5 mph - N/A   Clear
1:53 PM 35.1 °F 26.9 °F 16.0 °F 46% 30.21 in 10.0 mi WNW 11.5 mph - N/A   Clear
2:53 PM 36.0 °F 29.0 °F 14.0 °F 41% 30.20 in 10.0 mi NW 9.2 mph - N/A   Clear
3:53 PM 37.0 °F 30.4 °F 10.9 °F 34% 30.19 in 10.0 mi NW 9.2 mph - N/A   Clear
4:53 PM 37.0 °F 29.8 °F 14.0 °F 39% 30.19 in 10.0 mi NW 10.4 mph - N/A   Clear
5:53 PM 37.0 °F 29.8 °F 14.0 °F 39% 30.19 in 10.0 mi NW 10.4 mph - N/A   Clear
6:53 PM 36.0 °F 29.6 °F 12.9 °F 39% 30.19 in 10.0 mi NW 8.1 mph - N/A   Clear
7:53 PM 34.0 °F 24.2 °F 12.9 °F 42% 30.18 in 10.0 mi North 15.0 mph - N/A   Clear
8:53 PM 30.9 °F 24.3 °F 12.9 °F 47% 30.19 in 10.0 mi NNW 6.9 mph - N/A   Clear
9:53 PM 28.9 °F 25.2 °F 12.0 °F 49% 30.19 in 10.0 mi Variable 3.5 mph - N/A   Clear
10:53 PM 28.0 °F 17.5 °F 10.9 °F 49% 30.20 in 10.0 mi NNW 12.7 mph - N/A   Clear
11:53 PM 27.0 °F 14.3 °F 10.0 °F 49% 30.20 in 10.0 mi NW 17.3 mph - N/A   Clear